Location: Bailleul
(50.3375°N, 2.8513°E)
Time: 16:22:54
(UTC+00:00)

Cosmos 614 Rocket - Pass Details

Date: 19 April 2021
Orbit: 734 x 762 km, 74.1° (Epoch: 07 May)

Event Time Altitude Azimuth Distance (km) Brightness Sun altitude
Rises 19:47:04 0° 180° (S) 3,185 6.9 -9.1°
Reaches altitude 10° 19:49:32 10° 174° (S) 2,261 6.1 -9.5°
Maximum altitude 19:54:19 41° 105° (ESE) 1,068 4.3 -10.1°
Drops below altitude 10° 19:59:05 10° 36° (NE) 2,260 6.4 -10.7°
Sets 20:01:32 0° 29° (NNE) 3,184 7.3 -11.1°
